Time+07,TemperatureF,Dew PointF,Humidity,Sea Level PressureIn,VisibilityMPH,Wind Direction,Wind SpeedMPH,Gust SpeedMPH,PrecipitationIn,Events,Conditions,WindDirDegrees,DateUTC
12:00 AM,78.8,71.6,78,29.86,6.2,WNW,5.8,-,N/A,,Mostly Cloudy,300,2012-10-07 17:00:00
12:30 AM,77.0,71.6,83,29.83,6.2,West,5.8,-,N/A,,Scattered Clouds,280,2012-10-07 17:30:00
1:00 AM,79,76,87,29.81,6,Calm,Calm,,,,Scattered Clouds,,2012-10-07 18:00:00
1:00 AM,77.0,71.6,83,29.83,6.2,WNW,8.1,-,N/A,,Scattered Clouds,290,2012-10-07 18:00:00
2:00 AM,77.0,71.6,83,29.83,6.2,NNW,109.3,-,N/A,,Scattered Clouds,329,2012-10-07 19:00:00
3:00 AM,78.8,73.4,83,29.80,6.2,NNW,5.8,-,N/A,,Scattered Clouds,330,2012-10-07 20:00:00
3:30 AM,77.0,73.4,89,29.80,6.2,Calm,Calm,-,N/A,,Scattered Clouds,0,2012-10-07 20:30:00
4:00 AM,77.0,73.4,89,29.80,6.2,Calm,Calm,-,N/A,,Mostly Cloudy,0,2012-10-07 21:00:00
4:30 AM,75.2,73.4,94,29.80,6.2,Calm,Calm,-,N/A,,Mostly Cloudy,0,2012-10-07 21:30:00
5:00 AM,77.0,73.4,89,29.80,6.2,Calm,Calm,-,N/A,,Mostly Cloudy,0,2012-10-07 22:00:00
5:30 AM,78.8,73.4,83,29.80,6.2,NNW,3.5,-,N/A,,Mostly Cloudy,330,2012-10-07 22:30:00
6:00 AM,77.0,73.4,89,29.83,6.2,Calm,Calm,-,N/A,,Mostly Cloudy,0,2012-10-07 23:00:00
6:30 AM,77.0,73.4,89,29.83,6.2,Calm,Calm,-,N/A,,Mostly Cloudy,0,2012-10-07 23:30:00
7:00 AM,77,75,93,29.81,6,Calm,Calm,,,,Scattered Clouds,,2012-10-08 00:00:00
8:00 AM,84.2,75.2,74,29.86,6.2,West,9.2,-,N/A,,Mostly Cloudy,270,2012-10-08 01:00:00
8:30 AM,77.0,71.6,83,29.89,3.7,West,5.8,25.3,N/A,Rain,Light Rain,260,2012-10-08 01:30:00
9:00 AM,77.0,73.4,89,29.89,0.6,WNW,9.2,-,N/A,Rain,Heavy Rain,290,2012-10-08 02:00:00
9:30 AM,75.2,73.4,94,29.89,3.1,Variable,4.6,-,N/A,Rain,Rain,0,2012-10-08 02:30:00
10:00 AM,78.8,73.4,83,29.89,4.3,WNW,13.8,-,N/A,,Mostly Cloudy,290,2012-10-08 03:00:00
10:30 AM,80.6,73.4,79,29.89,4.3,WNW,12.7,-,N/A,,Mostly Cloudy,290,2012-10-08 03:30:00
12:00 PM,82.4,73.4,74,29.83,5.0,West,16.1,-,N/A,,Mostly Cloudy,280,2012-10-08 05:00:00
12:30 PM,82.4,75.2,79,29.83,5.0,WNW,16.1,-,N/A,,Mostly Cloudy,290,2012-10-08 05:30:00
1:00 PM,83,76,73,29.82,6,WNW,11.5,,,,Partly Cloudy,290,2012-10-08 06:00:00
1:00 PM,82.4,75.2,79,29.80,5.6,WNW,15.0,-,N/A,,Mostly Cloudy,290,2012-10-08 06:00:00
1:30 PM,84.2,75.2,74,29.80,5.6,West,18.4,-,N/A,,Mostly Cloudy,280,2012-10-08 06:30:00
2:00 PM,82.4,73.4,74,29.80,5.6,WNW,13.8,-,N/A,,Mostly Cloudy,290,2012-10-08 07:00:00
2:30 PM,82.4,75.2,79,29.80,5.6,West,16.1,-,N/A,,Mostly Cloudy,270,2012-10-08 07:30:00
3:00 PM,84.2,73.4,70,29.77,5.6,West,18.4,-,N/A,,Mostly Cloudy,270,2012-10-08 08:00:00
3:30 PM,82.4,73.4,74,29.77,5.6,West,16.1,-,N/A,,Mostly Cloudy,280,2012-10-08 08:30:00
4:00 PM,84.2,73.4,70,29.77,5.6,West,16.1,-,N/A,,Mostly Cloudy,280,2012-10-08 09:00:00
4:30 PM,82.4,73.4,74,29.77,5.6,WNW,12.7,-,N/A,,Mostly Cloudy,290,2012-10-08 09:30:00
5:00 PM,84.2,73.4,70,29.77,5.6,West,17.3,-,N/A,,Mostly Cloudy,280,2012-10-08 10:00:00
5:30 PM,82.4,71.6,70,29.80,5.6,West,17.3,-,N/A,,Mostly Cloudy,280,2012-10-08 10:30:00
6:00 PM,82.4,73.4,74,29.80,5.0,West,11.5,-,N/A,,Mostly Cloudy,280,2012-10-08 11:00:00
6:30 PM,80.6,71.6,74,29.80,5.0,WNW,9.2,-,N/A,,Mostly Cloudy,290,2012-10-08 11:30:00
7:00 PM,82,77,81,29.77,6,West,10.4,,,,Scattered Clouds,280,2012-10-08 12:00:00
7:00 PM,80.6,73.4,79,29.83,5.0,West,8.1,-,N/A,,Mostly Cloudy,280,2012-10-08 12:00:00
7:30 PM,80.6,71.6,74,29.83,5.0,West,16.1,-,N/A,,Mostly Cloudy,280,2012-10-08 12:30:00
8:00 PM,80.6,73.4,79,29.83,5.0,West,11.5,-,N/A,,Mostly Cloudy,280,2012-10-08 13:00:00
8:30 PM,80.6,73.4,79,29.83,5.0,West,11.5,-,N/A,,Mostly Cloudy,280,2012-10-08 13:30:00
9:00 PM,80.6,73.4,79,29.86,5.0,West,13.8,-,N/A,,Mostly Cloudy,280,2012-10-08 14:00:00
9:30 PM,80.6,73.4,79,29.86,5.0,West,13.8,-,N/A,,Mostly Cloudy,280,2012-10-08 14:30:00
10:00 PM,80.6,71.6,74,29.86,5.0,West,11.5,-,N/A,,Mostly Cloudy,280,2012-10-08 15:00:00
10:30 PM,80.6,73.4,79,29.86,5.0,West,13.8,-,N/A,,Mostly Cloudy,280,2012-10-08 15:30:00
11:00 PM,80.6,73.4,79,29.86,5.0,WNW,6.9,-,N/A,,Mostly Cloudy,290,2012-10-08 16:00:00
11:30 PM,80.6,73.4,79,29.83,5.0,West,8.1,-,N/A,,Mostly Cloudy,280,2012-10-08 16:30:00